Voltar ao catálogo

DMSP 5D-2 F13 DEB

AtivoSSO
NORAD 40418·DEBRIS·🇺🇸 United States

Lançado Mar 24, 1995 de Vandenberg Space Force Base

Loading…

Próximas Passagens (próximas 24 horas)

TLE

AtualizadoSource: Space-Track

Época: Sep 14, 2026, 20:17 UTC

1 40418U 95015AF  26257.84549002  .00001609  00000-0  59528-3 0  9999
2 40418  98.6430 287.3283 0008913  76.0100 284.2075 14.33707272600085

Acompanhe DMSP 5D-2 F13 DEB em tempo real com AllMySat

Download on the App Store